AirNav   ProFlight Series 2 Aviation Headset
 
 1060 users online  

74PN UPMC-Altoona Heliport
Altoona, Pennsylvania, USA

GOING TO ALTOONA?


FAA INFORMATION EFFECTIVE 18 JUNE 2020

Location

FAA Identifier: 74PN
Lat/Long: 40-31-18.0000N 078-23-54.0000W
40-31.300000N 078-23.900000W
40.5216667,-78.3983333
(estimated)
Elevation: 1259 ft. / 383.7 m (surveyed)
Variation: 10W (2000)
Time zone: UTC -4 (UTC -5 during Standard Time)
Zip code: 16601

Heliport Operations

Heliport use: Private use, MEDICAL USE.
Activation date: 02/1982
Control tower: no
ARTCC: CLEVELAND CENTER
FSS: ALTOONA FLIGHT SERVICE STATION
NOTAMs facility: FDC (NOTAM-D service not available)
Attendance: UNATNDD
Wind indicator: yes
Segmented circle: no
Lights: FOR HELI LGTS - 814-946-2121.

Heliport Communications

JOHNSTOWN APPROACH: 121.2
JOHNSTOWN DEPARTURE: 121.2
JANAT DP: 121.2
WX ASOS at AOO (14 nm S): 127.125 (814-793-9655)
  • APCH/DEP SVC PRVDD BY CLEVELAND ARTCC ON FREQ 124.4/327.1 (ALTOONA RCAG ) WHEN JOHNSTOWN APCH CTL CLSD.

Nearby radio navigation aids

VOR radial/distance  VOR name  Freq  Var
RECr104/16.0REVLOC VOR/DME110.6009W
JSTr064/23.4JOHNSTOWN VOR/DME113.0006W
PSBr228/30.0PHILIPSBURG VORTAC115.5010W

 
NDB name  Hdg/Dist  Freq  Var  ID
STOYSTOWN052/35.320910WSYS ... -.-- ...

Heliport Services

Runway Information

Helipad H1

Dimensions: 65 x 65 ft. / 20 x 20 m
Surface: asphalt
Runway edge lights: PERI
Operational restrictions: GROUND.
Latitude: 40-31.366667N
Longitude: 078-23.883333W
Elevation: 1259.0 ft.
Traffic pattern: leftleft
Markings: basic

Helipad H2

Dimensions: 44 x 44 ft. / 13 x 13 m
Surface: ROOF/TOP
Operational restrictions: ROOFTOP.
Latitude: 40-31.334833N
Longitude: 078-23.843333W
Elevation: 1245.0 ft.
Traffic pattern: leftleft

Heliport Ownership and Management from official FAA records

Ownership: Privately-owned
Owner: UPMC ALTOONA
620 HOWARD AVENUE
ALTOONA, PA 16601
Phone 814-889-2121
Manager: MIKE SCHREYER
620 HOWARD AVENUE
ALTOONA, PA 16601
Phone 814-414-6011

Heliport Operational Statistics

Aircraft based on the field: 1
Helicopters: 1
    

Additional Remarks

A52-H1 HOSPITAL BLDGS 115 FT.
FOR CD CTC JOHNSTOWN APCH AT 814-532-5960, WHEN APCH CLSD CTC CLEVELAND ARTCC AT 440-774-0234.

Instrument Procedures

There are no published instrument procedures at 74PN.

Some nearby airports with instrument procedures:

KAOO - Altoona-Blair County Airport (14 nm S)
9G8 - Ebensburg Airport (18 nm W)
KJST - John Murtha Johnstown-Cambria County Airport (23 nm SW)
KPSB - Mid-State Airport (26 nm NE)
KHMZ - Bedford County Airport (27 nm S)
 
Loc | Ops | Rwys | IFR | FBO | Links
Com | Nav | Svcs | Stats | Notes
Area around 74PN (UPMC-Altoona Heliport)
 
Road maps at: MapQuest Bing Google
 
Aerial photo
No photo
 
Sectional chart

 
Airport distance calculator
Flying to UPMC-Altoona Heliport? Find the distance to fly.

From to 74PN

Sunrise and sunset
Times for 07-Jul-2020
 Local
(UTC-4)
 Zulu
(UTC)
Morning civil twilight05:1909:19
Sunrise05:5209:52
Sunset20:4500:45
Evening civil twilight21:1801:18

Current date and time
Zulu (UTC)  08-Jul-2020 02:25:41
Local (UTC-4)  07-Jul-2020 22:25:41
 
METAR
KAOO 
14nm S 
080153Z AUTO 18004KT 10SM OVC022 24/21 A3008 RMK AO2 SLP174 T02440206
KJST 
23nm SW 
080154Z AUTO 00000KT 6SM -RA BR FEW021 BKN100 OVC120 19/18 A3010 RMK AO2 SLP178 P0002 T01940178
KHMZ 
27nm S 
080155Z AUTO 00000KT 10SM OVC022 24/19 A3006 RMK AO2 T02370188
TAF
KAOO 
14nm S 
072118Z 0721/0818 12007KT P6SM SCT045 BKN100 FM080200 00000KT P6SM SCT250 FM080900 00000KT 5SM BR SKC
NOTAMs
Click for the latest NOTAMs
NOTAMs are issued by the DoD/FAA and will open in a separate window not controlled by AirNav.

 

 
 

Would you like to see your business listed on this page?

 If your business provides an interesting product or service to pilots, flight crews, aircraft, or users of the UPMC-Altoona Heliport, you should consider listing it here.  To start the listing process, click on the button below
 
Add a business
 

Other Pages about UPMC-Altoona Heliport

Update a link
 
Copyright © AirNav, LLC. All rights reserved. Privacy Policy  Contact